• In Uzbekistan
  • List of Countries
  • For 7 days
  • Water Temperature
  • Satellite Maps
  • Weather Map
  • Weather Widgets
  • user-avatar
    Login

    Hourly Weather Yulara

    Today, 17 January, Wednesday

    Time Temperature Precipitation Wind Pressure Humidity
    00:00 +32°C° 0 mm 5 mps 714 mmHg 17%
    01:00 +30°C° 0 mm 5 mps 714 mmHg 18%
    02:00 +29°C° 0 mm 5 mps 714 mmHg 19%
    03:00 +29°C° 0 mm 5 mps 714 mmHg 19%
    04:00 +28°C° 0 mm 5 mps 714 mmHg 20%
    05:00 +28°C° 0 mm 4 mps 714 mmHg 21%
    06:00 +27°C° 0 mm 4 mps 714 mmHg 22%
    07:00 +30°C° 0 mm 5 mps 714 mmHg 19%
    08:00 +33°C° 0 mm 7 mps 715 mmHg 17%
    09:00 +36°C° 0 mm 7 mps 715 mmHg 13%
    10:00 +38°C° 0 mm 7 mps 715 mmHg 12%
    11:00 +39°C° 0 mm 7 mps 715 mmHg 11%
    12:00 +40°C° 0 mm 6 mps 714 mmHg 10%
    13:00 +41°C° 0 mm 6 mps 714 mmHg 10%
    14:00 +42°C° 0 mm 5 mps 713 mmHg 10%
    15:00 +42°C° 0 mm 5 mps 713 mmHg 9%
    16:00 +42°C° 0 mm 5 mps 713 mmHg 9%
    17:00 +42°C° 0 mm 5 mps 713 mmHg 10%
    18:00 +42°C° 0 mm 4 mps 713 mmHg 10%
    19:00 +40°C° 0 mm 4 mps 713 mmHg 11%
    20:00 +38°C° 0 mm 4 mps 713 mmHg 13%
    21:00 +36°C° 0 mm 3 mps 713 mmHg 15%
    22:00 +36°C° 0 mm 4 mps 713 mmHg 16%
    23:00 +35°C° 0 mm 4 mps 713 mmHg 17%

    Tomorrow, 18 January, Thursday

    Time Temperature Precipitation Wind Pressure Humidity
    00:00 +35°C° 0 mm 4 mps 713 mmHg 19%
    01:00 +34°C° 0 mm 5 mps 713 mmHg 23%
    02:00 +34°C° 0 mm 6 mps 713 mmHg 27%
    03:00 +33°C° 0 mm 6 mps 713 mmHg 30%
    04:00 +32°C° 0 mm 6 mps 713 mmHg 34%
    05:00 +32°C° 0 mm 6 mps 714 mmHg 39%
    06:00 +30°C° 0 mm 5 mps 714 mmHg 43%
    07:00 +33°C° 0 mm 5 mps 714 mmHg 37%
    08:00 +35°C° 0 mm 6 mps 715 mmHg 32%
    09:00 +38°C° 0 mm 6 mps 715 mmHg 26%
    10:00 +39°C° 0 mm 6 mps 715 mmHg 24%
    11:00 +41°C° 0 mm 5 mps 715 mmHg 21%
    12:00 +42°C° 0 mm 5 mps 715 mmHg 18%
    13:00 +42°C° 0 mm 5 mps 714 mmHg 18%
    14:00 +42°C° 0 mm 4 mps 714 mmHg 17%
    15:00 +42°C° 0 mm 4 mps 713 mmHg 17%
    16:00 +42°C° 0 mm 4 mps 713 mmHg 17%
    17:00 +41°C° 0 mm 5 mps 713 mmHg 18%
    18:00 +41°C° 0 mm 5 mps 714 mmHg 19%
    19:00 +39°C° 0.2 mm 5 mps 714 mmHg 22%
    20:00 +37°C° 0.2 mm 5 mps 714 mmHg 25%
    21:00 +36°C° 0.2 mm 4 mps 715 mmHg 29%
    22:00 +35°C° 0.1 mm 3 mps 715 mmHg 30%
    23:00 +34°C° 0.1 mm 2 mps 715 mmHg 31%

    Day after tomorrow, 19 January, Friday

    Time Temperature Precipitation Wind Pressure Humidity
    00:00 +33°C° 0.1 mm 1 mps 715 mmHg 33%
    01:00 +32°C° 0 mm 2 mps 715 mmHg 34%
    02:00 +32°C° 0 mm 2 mps 715 mmHg 35%
    03:00 +31°C° 0 mm 2 mps 714 mmHg 36%
    04:00 +31°C° 0 mm 2 mps 715 mmHg 40%
    05:00 +30°C° 0 mm 2 mps 715 mmHg 43%
    06:00 +29°C° 0 mm 1 mps 715 mmHg 46%
    07:00 +31°C° 0 mm 1 mps 715 mmHg 41%
    08:00 +33°C° 0 mm 1 mps 716 mmHg 36%
    09:00 +35°C° 0 mm 1 mps 716 mmHg 31%
    10:00 +37°C° 0 mm 2 mps 716 mmHg 27%
    11:00 +38°C° 0 mm 3 mps 716 mmHg 24%
    12:00 +41°C° 0 mm 4 mps 716 mmHg 20%
    13:00 +41°C° 0 mm 4 mps 715 mmHg 19%
    14:00 +41°C° 0 mm 4 mps 714 mmHg 17%
    15:00 +42°C° 0 mm 4 mps 714 mmHg 16%
    16:00 +42°C° 0 mm 4 mps 714 mmHg 15%
    17:00 +42°C° 0 mm 4 mps 714 mmHg 14%
    18:00 +42°C° 0 mm 4 mps 714 mmHg 14%
    19:00 +41°C° 0 mm 4 mps 714 mmHg 15%
    20:00 +40°C° 0 mm 4 mps 714 mmHg 16%
    21:00 +37°C° 0 mm 3 mps 714 mmHg 16%
    22:00 +37°C° 0 mm 4 mps 715 mmHg 17%
    23:00 +36°C° 0 mm 4 mps 715 mmHg 18%

    20 January, Saturday

    Time Temperature Precipitation Wind Pressure Humidity
    00:00 +36°C° 0 mm 4 mps 715 mmHg 19%
    01:00 +35°C° 0 mm 3 mps 715 mmHg 24%
    02:00 +34°C° 0 mm 3 mps 714 mmHg 29%
    03:00 +32°C° 0 mm 2 mps 714 mmHg 34%
    04:00 +31°C° 0 mm 2 mps 714 mmHg 37%
    05:00 +31°C° 0 mm 1 mps 715 mmHg 40%
    06:00 +30°C° 0 mm 1 mps 715 mmHg 44%
    07:00 +32°C° 0 mm 1 mps 715 mmHg 40%
    08:00 +34°C° 0 mm 1 mps 716 mmHg 35%
    09:00 +35°C° 0 mm 1 mps 716 mmHg 31%
    10:00 +38°C° 0 mm 2 mps 716 mmHg 27%
    11:00 +39°C° 0 mm 3 mps 716 mmHg 22%
    12:00 +42°C° 0 mm 4 mps 715 mmHg 17%
    13:00 +42°C° 0 mm 4 mps 715 mmHg 17%
    14:00 +42°C° 0 mm 5 mps 714 mmHg 16%
    15:00 +42°C° 0 mm 5 mps 713 mmHg 16%
    16:00 +42°C° 0 mm 5 mps 714 mmHg 16%
    17:00 +42°C° 0 mm 4 mps 714 mmHg 16%
    18:00 +41°C° 0 mm 4 mps 714 mmHg 16%
    19:00 +41°C° 0 mm 4 mps 714 mmHg 17%
    20:00 +40°C° 0 mm 4 mps 714 mmHg 18%
    21:00 +38°C° 0 mm 3 mps 714 mmHg 19%
    22:00 +37°C° 0 mm 3 mps 714 mmHg 20%
    23:00 +36°C° 0 mm 3 mps 714 mmHg 20%

    21 January, Sunday

    Time Temperature Precipitation Wind Pressure Humidity
    00:00 +36°C° 0 mm 3 mps 714 mmHg 21%
    01:00 +35°C° 0 mm 2 mps 714 mmHg 23%
    02:00 +34°C° 0 mm 2 mps 713 mmHg 25%
    03:00 +32°C° 0 mm 2 mps 713 mmHg 26%
    04:00 +31°C° 0 mm 2 mps 713 mmHg 27%
    05:00 +31°C° 0 mm 2 mps 714 mmHg 29%
    06:00 +30°C° 0 mm 2 mps 714 mmHg 30%
    07:00 +32°C° 0 mm 2 mps 714 mmHg 27%
    08:00 +35°C° 0 mm 2 mps 715 mmHg 25%
    09:00 +37°C° 0 mm 3 mps 716 mmHg 23%
    10:00 +38°C° 0 mm 2 mps 715 mmHg 20%
    11:00 +39°C° 0 mm 2 mps 715 mmHg 18%
    12:00 +41°C° 0 mm 2 mps 714 mmHg 16%
    13:00 +42°C° 0 mm 2 mps 714 mmHg 14%
    14:00 +44°C° 0 mm 3 mps 713 mmHg 12%
    15:00 +45°C° 0 mm 4 mps 712 mmHg 11%
    16:00 +44°C° 0 mm 4 mps 712 mmHg 11%
    17:00 +44°C° 0 mm 4 mps 712 mmHg 11%
    18:00 +44°C° 0 mm 4 mps 712 mmHg 11%
    19:00 +43°C° 0 mm 4 mps 713 mmHg 12%
    20:00 +42°C° 0 mm 3 mps 713 mmHg 13%
    21:00 +39°C° 0 mm 3 mps 713 mmHg 15%
    22:00 +39°C° 0 mm 2 mps 713 mmHg 16%
    23:00 +38°C° 0 mm 2 mps 713 mmHg 17%

    22 January, Monday

    Time Temperature Precipitation Wind Pressure Humidity
    00:00 +38°C° 0 mm 2 mps 713 mmHg 18%
    01:00 +37°C° 0 mm 3 mps 713 mmHg 20%
    02:00 +36°C° 0 mm 5 mps 713 mmHg 22%
    03:00 +35°C° 0 mm 6 mps 713 mmHg 23%
    04:00 +35°C° 0 mm 6 mps 713 mmHg 26%
    05:00 +34°C° 0 mm 5 mps 714 mmHg 28%
    06:00 +33°C° 0 mm 5 mps 714 mmHg 31%
    07:00 +34°C° 0 mm 5 mps 714 mmHg 28%
    08:00 +36°C° 0 mm 6 mps 715 mmHg 26%
    09:00 +38°C° 0 mm 6 mps 715 mmHg 23%
    10:00 +40°C° 0 mm 6 mps 715 mmHg 21%
    11:00 +41°C° 0 mm 6 mps 714 mmHg 18%
    12:00 +44°C° 0 mm 6 mps 714 mmHg 16%
    13:00 +45°C° 0 mm 6 mps 713 mmHg 14%
    14:00 +46°C° 0 mm 6 mps 713 mmHg 12%
    15:00 +47°C° 0 mm 7 mps 712 mmHg 10%
    16:00 +47°C° 0 mm 7 mps 712 mmHg 10%
    17:00 +46°C° 0 mm 7 mps 712 mmHg 10%
    18:00 +46°C° 0 mm 8 mps 712 mmHg 10%
    19:00 +45°C° 0 mm 8 mps 712 mmHg 11%
    20:00 +44°C° 0 mm 7 mps 713 mmHg 12%
    21:00 +43°C° 0 mm 7 mps 713 mmHg 13%
    22:00 +41°C° 0 mm 8 mps 713 mmHg 15%
    23:00 +40°C° 0 mm 9 mps 713 mmHg 17%
    Show more